Location: Quaker Farms
(41.4276°N, 73.1557°W)
Time: 10:57:40
(UTC+00:00)

A-11 Canister half - All Passes

Search period start: 15 June 2021 00:00
Search period end: 25 June 2021 00:00
Orbit: 1513 x 1686 km, 47.2° (Epoch: 14 June)

Date Brightness Start Highest point End Pass type
(mag) Time Alt. Az. Time Alt. Az. Time Alt. Az.
15 Jun - 08:50:29 10° SSW 08:59:09 34° SE 09:07:35 10° ENE daylight
15 Jun - 10:53:24 10° WSW 11:03:24 87° SSE 11:13:03 10° ENE daylight
15 Jun - 12:59:16 10° W 13:08:59 63° N 13:18:21 10° ENE daylight
15 Jun - 15:05:10 10° WNW 15:14:49 76° NNE 15:24:08 10° ESE daylight
15 Jun - 17:10:30 10° WNW 17:19:28 50° SW 17:28:14 10° SSE daylight
15 Jun - 19:19:22 10° W 19:22:33 12° WSW 19:25:43 10° SW daylight
16 Jun - 08:27:48 10° S 08:36:17 32° SE 08:44:33 10° ENE visible
16 Jun - 10:30:26 10° WSW 10:40:28 84° SSE 10:50:08 10° ENE daylight
16 Jun - 12:36:15 10° W 12:46:00 63° N 12:55:24 10° ENE daylight
16 Jun - 14:42:12 10° WNW 14:51:52 74° NNE 15:01:11 10° ESE daylight
16 Jun - 16:47:31 10° WNW 16:56:36 53° SW 17:05:27 10° SSE daylight
16 Jun - 18:55:43 10° W 18:59:45 14° WSW 19:03:48 10° SSW daylight
17 Jun - 08:05:08 10° S 08:13:25 30° SE 08:21:31 10° ENE visible
17 Jun - 10:07:29 10° SW 10:17:31 81° SSE 10:27:12 10° ENE daylight
17 Jun - 12:13:12 10° W 12:23:01 64° N 12:32:27 10° ENE daylight
17 Jun - 14:19:13 10° WNW 14:28:54 72° NNE 14:38:15 10° ESE daylight
17 Jun - 16:24:33 10° WNW 16:33:44 56° SW 16:42:40 10° SE daylight
17 Jun - 18:32:14 10° W 18:36:58 15° WSW 18:41:41 10° SSW daylight
18 Jun - 07:42:30 10° S 07:50:34 28° SE 07:58:28 10° ENE visible
18 Jun - 09:44:33 10° SW 09:54:35 78° SSE 10:04:17 10° ENE daylight
18 Jun - 11:50:10 10° W 12:00:01 65° N 12:09:30 10° ENE daylight
18 Jun - 13:56:14 10° WNW 14:05:57 71° NNE 14:15:18 10° E daylight
18 Jun - 16:01:34 10° WNW 16:10:52 60° SW 16:19:53 10° SE daylight
18 Jun - 18:08:52 10° W 18:14:11 17° SW 18:19:27 10° SSW daylight
19 Jun - 07:19:52 10° S 07:27:42 26° SE 07:35:23 10° ENE visible
19 Jun - 09:21:37 10° SW 09:31:39 75° SSE 09:41:21 10° ENE daylight
19 Jun - 11:27:08 10° W 11:37:01 66° N 11:46:33 10° ENE daylight
19 Jun - 13:33:14 10° WNW 13:42:59 69° NNE 13:52:21 10° E daylight
19 Jun - 15:38:37 10° WNW 15:47:59 63° SW 15:57:04 10° SE daylight
19 Jun - 17:45:35 10° W 17:51:23 18° SW 17:57:08 10° SSW daylight
20 Jun - 06:57:18 10° S 07:04:51 25° SE 07:12:16 10° E visible
20 Jun - 08:58:43 10° SW 09:08:43 72° SE 09:18:26 10° ENE daylight
20 Jun - 11:04:06 10° W 11:14:02 67° NNW 11:23:37 10° ENE daylight
20 Jun - 13:10:15 10° WNW 13:20:00 68° NNE 13:29:24 10° E daylight
20 Jun - 15:15:38 10° WNW 15:25:06 66° SW 15:34:15 10° SE daylight
20 Jun - 17:22:21 10° W 17:28:35 20° SW 17:34:45 10° SSW daylight
21 Jun - 06:34:45 10° S 06:42:00 23° SE 06:49:08 10° E visible
21 Jun - 08:35:48 10° SW 08:45:48 69° SE 08:55:30 10° ENE visible
21 Jun - 10:41:05 10° W 10:51:03 68° NNW 11:00:40 10° ENE daylight
21 Jun - 12:47:14 10° WNW 12:57:02 67° NNE 13:06:26 10° E daylight
21 Jun - 14:52:40 10° WNW 15:02:13 69° SW 15:11:25 10° SE daylight
21 Jun - 16:59:09 10° W 17:05:47 22° SW 17:12:18 10° S daylight
22 Jun - 06:12:16 10° S 06:19:10 21° SE 06:25:58 10° E visible
22 Jun - 08:12:54 10° SW 08:22:52 66° SE 08:32:33 10° ENE visible
22 Jun - 10:18:02 10° W 10:28:04 69° NNW 10:37:43 10° ENE daylight
22 Jun - 12:24:14 10° WNW 12:34:03 66° N 12:43:29 10° E daylight
22 Jun - 14:29:42 10° WNW 14:39:18 73° SW 14:48:35 10° SE daylight
22 Jun - 16:36:00 10° W 16:42:58 24° SW 16:49:50 10° S daylight
23 Jun - 05:49:49 10° SSE 05:56:19 19° SE 06:02:45 10° E visible
23 Jun - 07:50:01 10° SW 07:59:56 62° SE 08:09:37 10° ENE visible
23 Jun - 09:55:01 10° W 10:05:04 71° NNW 10:14:47 10° ENE daylight
23 Jun - 12:01:14 10° WNW 12:11:04 65° N 12:20:31 10° E daylight
23 Jun - 14:06:43 10° WNW 14:16:25 76° SSW 14:25:43 10° SE daylight
23 Jun - 16:12:52 10° WNW 16:20:09 26° SW 16:27:18 10° S daylight
24 Jun - 05:27:25 10° SSE 05:33:30 18° SE 05:39:29 10° E visible
24 Jun - 07:27:09 10° SW 07:37:02 60° SE 07:46:40 10° ENE visible
24 Jun - 09:31:59 10° WSW 09:42:05 72° NNW 09:51:50 10° ENE daylight
24 Jun - 11:38:12 10° WNW 11:48:05 64° N 11:57:33 10° E daylight
24 Jun - 13:43:46 10° WNW 13:53:30 79° SSW 14:02:51 10° SE daylight
24 Jun - 15:49:45 10° WNW 15:57:20 28° SW 16:04:45 10° S daylight
